Location: Bédeille
(43.0872°N, 1.1041°E)
Time: 03:21:48
(UTC+00:00)

Cosmos 2333 Rocket - Pass Details

Date: 03 February 2023
Orbit: 837 x 864 km, 70.8° (Epoch: 27 March)

Event Time Altitude Azimuth Distance (km) Brightness Sun altitude
Rises 19:54:03 0° 229° (SW) 3,380 5.9 -30.1°
Reaches altitude 10° 19:56:41 10° 239° (WSW) 2,451 5.2 -30.6°
Maximum altitude 20:01:49 35° 304° (NW) 1,330 3.6 -31.5°
Enters shadow 20:04:29 23° 352° (N) 1,716 3.9 -32.0°
